User: anonymous   Login
Location: Albany
(35.0000°S, 118.0000°E)
Time: 07:59:24
(UTC-05:00)
Language:

Centaur D-1AR AC-48 - Orbit

View from above orbital plane
View from above orbital plane
View from above satellite
View from above satellite

Ground track
Ground track

The orbit data is extracted from the following two-line orbital elements,

1 10779U 78035B   16042.08233359 -.00000018  00000-0  54745-3 0  9991
2 10779  21.2130 240.7988 7195616  68.9623  21.6936  2.22655149307724
Epoch (UTC): 11 February 2016 01:58:33
Eccentricity: 0.7195616
inclination: 21.2130°
perigee height: 569 km
apogee height: 36220 km
right ascension of ascending node: 240.7988°
argument of perigee: 68.9623°
revolutions per day: 2.22655149
mean anomaly at epoch: 21.6936°
orbit number at epoch: 30772

The dashed part of the orbit path shows where the satellite is in the earth's shadow,  

DLR